Time,TemperatureF,DewpointF,PressureIn,WindDirection,WindDirectionDegrees,WindSpeedMPH,WindSpeedGustMPH,Humidity,HourlyPrecipIn,Conditions,Clouds,dailyrainin,SoftwareType,DateUTC
2013-06-09 00:03:00,57.0,52.0,26.88,West,271,7.0,8.0,82,0.04,,,-99.99,,2013-06-09 05:03:00,
2013-06-09 00:08:00,57.0,52.0,26.87,West,279,6.0,7.0,82,0.04,,,-99.99,,2013-06-09 05:08:00,
2013-06-09 00:13:00,56.0,50.0,26.87,WNW,289,7.0,8.0,82,0.04,,,-99.99,,2013-06-09 05:13:00,
2013-06-09 00:18:00,56.0,52.0,26.87,NW,305,8.0,9.0,83,0.04,,,-99.99,,2013-06-09 05:18:00,
2013-06-09 00:23:00,55.0,50.0,26.88,NW,307,8.0,8.0,84,0.04,,,-99.99,,2013-06-09 05:23:00,
2013-06-09 00:28:00,55.0,50.0,26.88,WNW,303,8.0,8.0,85,0.04,,,-99.99,,2013-06-09 05:28:00,
2013-06-09 00:33:00,56.0,52.0,26.88,WNW,292,8.0,8.0,84,0.04,,,-99.99,,2013-06-09 05:33:00,
2013-06-09 00:38:00,56.0,52.0,26.88,WNW,288,7.0,8.0,84,0.04,,,-99.99,,2013-06-09 05:38:00,
2013-06-09 00:43:00,57.0,52.0,26.88,West,281,6.0,8.0,83,0.04,,,-99.99,,2013-06-09 05:43:00,
2013-06-09 00:48:00,57.0,52.0,26.88,WNW,282,8.0,10.0,82,0.04,,,-99.99,,2013-06-09 05:48:00,
2013-06-09 00:53:00,58.0,52.0,26.88,West,281,8.0,10.0,82,0.04,,,-99.99,,2013-06-09 05:53:00,
2013-06-09 00:58:00,58.0,52.0,26.88,WNW,283,8.0,9.0,81,0.04,,,-99.99,,2013-06-09 05:58:00,
2013-06-09 01:03:00,58.0,52.0,26.88,WNW,285,8.0,9.0,80,0.04,,,-99.99,,2013-06-09 06:03:00,
2013-06-09 01:08:00,58.0,52.0,26.88,West,281,5.0,6.0,80,0.04,,,-99.99,,2013-06-09 06:08:00,
2013-06-09 01:18:00,58.0,52.0,26.88,WNW,282,6.0,7.0,79,0.04,,,-99.99,,2013-06-09 06:18:00,
2013-06-09 01:23:00,58.0,52.0,26.89,WSW,258,7.0,9.0,79,0.04,,,-99.99,,2013-06-09 06:23:00,
2013-06-09 01:28:00,58.0,52.0,26.89,West,259,9.0,12.0,80,0.04,,,-99.99,,2013-06-09 06:28:00,
2013-06-09 01:38:00,56.0,52.0,26.88,WSW,250,7.0,10.0,83,0.04,,,-99.99,,2013-06-09 06:38:00,
2013-06-09 01:43:00,55.0,50.0,26.88,WSW,257,7.0,11.0,84,0.04,,,-99.99,,2013-06-09 06:43:00,
2013-06-09 01:48:00,55.0,50.0,26.88,WNW,285,8.0,10.0,85,0.04,,,-99.99,,2013-06-09 06:48:00,
2013-06-09 01:58:00,55.0,50.0,26.88,WSW,257,9.0,11.0,85,0.04,,,-99.99,,2013-06-09 06:58:00,
2013-06-09 02:03:00,56.0,52.0,26.88,West,278,10.0,13.0,86,0.04,,,-99.99,,2013-06-09 07:03:00,
2013-06-09 02:18:00,57.0,52.0,26.88,WNW,289,9.0,11.0,85,0.04,,,-99.99,,2013-06-09 07:18:00,
2013-06-09 02:23:00,57.0,52.0,26.88,West,279,9.0,11.0,84,0.04,,,-99.99,,2013-06-09 07:23:00,
2013-06-09 02:28:00,58.0,52.0,26.88,WNW,282,9.0,11.0,82,0.04,,,-99.99,,2013-06-09 07:28:00,
2013-06-09 02:33:00,58.0,52.0,26.88,West,262,9.0,11.0,81,0.04,,,-99.99,,2013-06-09 07:33:00,
2013-06-09 02:38:00,59.0,54.0,26.87,WNW,296,8.0,9.0,80,0.04,,,-99.99,,2013-06-09 07:38:00,
2013-06-09 02:43:00,58.0,52.0,26.88,WNW,293,7.0,8.0,80,0.04,,,-99.99,,2013-06-09 07:43:00,
2013-06-09 02:48:00,57.0,52.0,26.88,WNW,290,7.0,9.0,82,0.04,,,-99.99,,2013-06-09 07:48:00,
2013-06-09 02:58:00,57.0,52.0,26.88,West,281,8.0,11.0,82,0.04,,,-99.99,,2013-06-09 07:58:00,
2013-06-09 03:03:00,58.0,52.0,26.88,WNW,286,8.0,10.0,81,0.04,,,-99.99,,2013-06-09 08:03:00,
2013-06-09 03:08:00,58.0,52.0,26.87,WNW,286,8.0,11.0,81,0.04,,,-99.99,,2013-06-09 08:08:00,
2013-06-09 03:13:00,58.0,52.0,26.87,WNW,296,7.0,10.0,80,0.04,,,-99.99,,2013-06-09 08:13:00,
2013-06-09 03:23:00,57.0,52.0,26.88,WNW,286,7.0,9.0,81,0.04,,,-99.99,,2013-06-09 08:23:00,
2013-06-09 03:28:00,57.0,52.0,26.88,West,261,8.0,10.0,82,0.04,,,-99.99,,2013-06-09 08:28:00,
2013-06-09 03:43:00,56.0,52.0,26.89,West,279,8.0,10.0,84,0.04,,,-99.99,,2013-06-09 08:43:00,
2013-06-09 03:48:00,56.0,52.0,26.88,West,279,8.0,11.0,85,0.04,,,-99.99,,2013-06-09 08:48:00,
2013-06-09 03:53:00,56.0,52.0,26.88,WNW,285,8.0,10.0,85,0.04,,,-99.99,,2013-06-09 08:53:00,
2013-06-09 04:03:00,57.0,52.0,26.88,West,262,9.0,14.0,83,0.04,,,-99.99,,2013-06-09 09:03:00,
2013-06-09 04:08:00,57.0,52.0,26.88,West,265,8.0,10.0,85,0.04,,,-99.99,,2013-06-09 09:08:00,
2013-06-09 04:23:00,56.0,52.0,26.88,WSW,251,9.0,12.0,87,0.04,,,-99.99,,2013-06-09 09:23:00,
2013-06-09 04:28:00,56.0,52.0,26.88,West,268,9.0,10.0,87,0.04,,,-99.99,,2013-06-09 09:28:00,
2013-06-09 04:33:00,56.0,52.0,26.88,WSW,245,9.0,11.0,88,0.04,,,-99.99,,2013-06-09 09:33:00,
2013-06-09 04:43:00,55.0,52.0,26.88,West,274,9.0,11.0,89,0.04,,,-99.99,,2013-06-09 09:43:00,
2013-06-09 04:48:00,55.0,52.0,26.88,WSW,252,8.0,11.0,89,0.04,,,-99.99,,2013-06-09 09:48:00,
2013-06-09 04:53:00,55.0,52.0,26.88,West,276,10.0,14.0,90,0.04,,,-99.99,,2013-06-09 09:53:00,
2013-06-09 05:03:00,55.0,52.0,26.88,West,272,8.0,11.0,90,0.04,,,-99.99,,2013-06-09 10:03:00,
2013-06-09 05:08:00,54.0,52.0,26.87,West,268,9.0,12.0,90,0.04,,,-99.99,,2013-06-09 10:08:00,
2013-06-09 05:13:00,55.0,52.0,26.87,West,271,9.0,11.0,90,0.04,,,-99.99,,2013-06-09 10:13:00,
2013-06-09 05:23:00,54.0,52.0,26.87,WNW,283,8.0,11.0,90,0.04,,,-99.99,,2013-06-09 10:23:00,
2013-06-09 05:28:00,55.0,52.0,26.87,WNW,298,9.0,12.0,90,0.04,,,-99.99,,2013-06-09 10:28:00,
2013-06-09 05:33:00,55.0,52.0,26.87,West,265,10.0,13.0,90,0.04,,,-99.99,,2013-06-09 10:33:00,
2013-06-09 05:38:00,55.0,52.0,26.88,West,278,9.0,12.0,90,0.04,,,-99.99,,2013-06-09 10:38:00,
2013-06-09 05:43:00,55.0,52.0,26.88,West,264,9.0,11.0,90,0.04,,,-99.99,,2013-06-09 10:43:00,
2013-06-09 05:48:00,54.0,52.0,26.88,West,259,8.0,11.0,90,0.04,,,-99.99,,2013-06-09 10:48:00,
2013-06-09 05:53:00,54.0,52.0,26.88,West,269,9.0,12.0,90,0.04,,,-99.99,,2013-06-09 10:53:00,
2013-06-09 06:08:00,53.0,50.0,26.89,West,278,8.0,10.0,91,0.04,,,-99.99,,2013-06-09 11:08:00,
2013-06-09 06:13:00,53.0,50.0,26.89,West,274,8.0,10.0,91,0.04,,,-99.99,,2013-06-09 11:13:00,
2013-06-09 06:28:00,53.0,50.0,26.89,WNW,286,6.0,8.0,91,0.04,,,-99.99,,2013-06-09 11:28:00,
2013-06-09 06:33:00,53.0,50.0,26.89,NW,307,7.0,7.0,91,0.04,,,-99.99,,2013-06-09 11:33:00,
2013-06-09 06:38:00,52.0,50.0,26.89,NW,306,6.0,7.0,91,0.04,,,-99.99,,2013-06-09 11:38:00,
2013-06-09 06:48:00,52.0,50.0,26.90,NNW,330,5.0,6.0,91,0.04,,,-99.99,,2013-06-09 11:48:00,
2013-06-09 06:53:00,52.0,50.0,26.89,NNW,331,7.0,8.0,92,0.04,,,-99.99,,2013-06-09 11:53:00,
2013-06-09 06:58:00,53.0,50.0,26.90,NNW,331,7.0,7.0,92,0.04,,,-99.99,,2013-06-09 11:58:00,
2013-06-09 07:03:00,53.0,50.0,26.89,NW,313,7.0,8.0,92,0.00,,,-99.99,,2013-06-09 12:03:00,
2013-06-09 07:08:00,53.0,50.0,26.89,WNW,302,4.0,6.0,91,0.00,,,-99.99,,2013-06-09 12:08:00,
2013-06-09 07:13:00,54.0,52.0,26.89,NW,307,5.0,7.0,91,0.00,,,-99.99,,2013-06-09 12:13:00,
2013-06-09 07:18:00,55.0,52.0,26.89,NW,305,7.0,8.0,91,0.00,,,-99.99,,2013-06-09 12:18:00,
2013-06-09 07:28:00,55.0,52.0,26.90,NW,306,6.0,7.0,90,0.00,,,-99.99,,2013-06-09 12:28:00,
2013-06-09 07:33:00,56.0,54.0,26.90,WNW,303,6.0,7.0,90,0.00,,,-99.99,,2013-06-09 12:33:00,
2013-06-09 07:38:00,56.0,54.0,26.90,NNW,329,8.0,9.0,90,0.00,,,-99.99,,2013-06-09 12:38:00,
2013-06-09 07:48:00,57.0,54.0,26.91,NNW,327,8.0,9.0,88,0.00,,,-99.99,,2013-06-09 12:48:00,
2013-06-09 07:53:00,58.0,54.0,26.91,NNW,348,9.0,10.0,88,0.00,,,-99.99,,2013-06-09 12:53:00,
2013-06-09 07:58:00,58.0,54.0,26.91,NNW,347,8.0,9.0,87,0.00,,,-99.99,,2013-06-09 12:58:00,
2013-06-09 08:03:00,58.0,54.0,26.91,NNW,344,10.0,10.0,86,0.00,,,-99.99,,2013-06-09 13:03:00,
2013-06-09 08:08:00,58.0,54.0,26.91,NNW,348,10.0,12.0,86,0.00,,,-99.99,,2013-06-09 13:08:00,
2013-06-09 08:18:00,59.0,54.0,26.91,NNW,341,10.0,12.0,85,0.00,,,-99.99,,2013-06-09 13:18:00,
2013-06-09 08:23:00,59.0,54.0,26.91,NNW,340,9.0,10.0,85,0.00,,,-99.99,,2013-06-09 13:23:00,
2013-06-09 08:28:00,59.0,54.0,26.91,NNW,331,8.0,10.0,84,0.00,,,-99.99,,2013-06-09 13:28:00,
2013-06-09 08:33:00,60.0,55.0,26.91,NNW,331,8.0,9.0,83,0.00,,,-99.99,,2013-06-09 13:33:00,
2013-06-09 08:38:00,60.0,55.0,26.91,NNW,343,8.0,10.0,83,0.00,,,-99.99,,2013-06-09 13:38:00,
2013-06-09 08:43:00,61.0,55.0,26.91,NNW,334,8.0,10.0,82,0.00,,,-99.99,,2013-06-09 13:43:00,
2013-06-09 08:48:00,61.0,55.0,26.91,NNW,341,7.0,8.0,81,0.00,,,-99.99,,2013-06-09 13:48:00,
2013-06-09 08:53:00,62.0,55.0,26.91,NW,312,8.0,10.0,81,0.00,,,-99.99,,2013-06-09 13:53:00,
2013-06-09 08:58:00,63.0,57.0,26.91,WNW,302,10.0,12.0,79,0.00,,,-99.99,,2013-06-09 13:58:00,
2013-06-09 09:03:00,63.0,55.0,26.91,WNW,295,9.0,11.0,77,0.00,,,-99.99,,2013-06-09 14:03:00,
2013-06-09 09:08:00,64.0,57.0,26.91,WNW,290,7.0,10.0,77,0.00,,,-99.99,,2013-06-09 14:08:00,
2013-06-09 09:13:00,64.0,57.0,26.91,WNW,300,9.0,10.0,77,0.00,,,-99.99,,2013-06-09 14:13:00,
2013-06-09 09:18:00,65.0,57.0,26.91,WNW,286,8.0,10.0,76,0.00,,,-99.99,,2013-06-09 14:18:00,
2013-06-09 09:28:00,65.0,55.0,26.91,NW,307,8.0,10.0,73,0.00,,,-99.99,,2013-06-09 14:28:00,
2013-06-09 09:33:00,66.0,57.0,26.91,NW,305,9.0,10.0,73,0.00,,,-99.99,,2013-06-09 14:33:00,
2013-06-09 09:38:00,66.0,57.0,26.91,NW,306,9.0,10.0,72,0.00,,,-99.99,,2013-06-09 14:38:00,
2013-06-09 09:43:00,67.0,57.0,26.91,WNW,303,9.0,11.0,71,0.00,,,-99.99,,2013-06-09 14:43:00,
2013-06-09 09:48:00,67.0,57.0,26.91,NW,323,10.0,12.0,72,0.00,,,-99.99,,2013-06-09 14:48:00,
2013-06-09 09:53:00,68.0,59.0,26.91,NW,317,11.0,13.0,71,0.00,,,-99.99,,2013-06-09 14:53:00,
2013-06-09 09:58:00,68.0,57.0,26.91,NNW,343,12.0,13.0,70,0.00,,,-99.99,,2013-06-09 14:58:00,
2013-06-09 10:03:00,68.0,59.0,26.91,NNW,331,12.0,15.0,71,0.00,,,-99.99,,2013-06-09 15:03:00,
2013-06-09 10:08:00,69.0,59.0,26.91,NNW,331,10.0,14.0,69,0.00,,,-99.99,,2013-06-09 15:08:00,
2013-06-09 10:13:00,69.0,57.0,26.91,NNW,347,11.0,12.0,68,0.00,,,-99.99,,2013-06-09 15:13:00,
2013-06-09 10:18:00,69.0,57.0,26.91,North,10,11.0,13.0,67,0.00,,,-99.99,,2013-06-09 15:18:00,
2013-06-09 10:23:00,69.0,57.0,26.91,NNW,336,10.0,12.0,67,0.00,,,-99.99,,2013-06-09 15:23:00,
2013-06-09 10:28:00,70.0,59.0,26.92,North,354,10.0,12.0,66,0.00,,,-99.99,,2013-06-09 15:28:00,
2013-06-09 10:33:00,70.0,59.0,26.91,North,350,10.0,12.0,67,0.00,,,-99.99,,2013-06-09 15:33:00,
2013-06-09 10:38:00,70.0,59.0,26.91,NNW,344,8.0,11.0,67,0.00,,,-99.99,,2013-06-09 15:38:00,
2013-06-09 10:43:00,71.0,59.0,26.92,NNW,343,7.0,10.0,66,0.00,,,-99.99,,2013-06-09 15:43:00,
2013-06-09 10:48:00,71.0,59.0,26.92,NNW,327,8.0,10.0,65,0.00,,,-99.99,,2013-06-09 15:48:00,
2013-06-09 10:53:00,71.0,59.0,26.91,NNW,347,7.0,9.0,65,0.00,,,-99.99,,2013-06-09 15:53:00,
2013-06-09 10:58:00,72.0,59.0,26.91,WNW,302,9.0,11.0,63,0.00,,,-99.99,,2013-06-09 15:58:00,
2013-06-09 11:03:00,72.0,59.0,26.91,NW,323,10.0,11.0,62,0.00,,,-99.99,,2013-06-09 16:03:00,
2013-06-09 11:08:00,73.0,59.0,26.91,NW,306,10.0,13.0,62,0.00,,,-99.99,,2013-06-09 16:08:00,
2013-06-09 11:13:00,73.0,59.0,26.91,WNW,296,9.0,12.0,61,0.00,,,-99.99,,2013-06-09 16:13:00,
2013-06-09 11:18:00,73.0,59.0,26.91,WNW,296,9.0,11.0,61,0.00,,,-99.99,,2013-06-09 16:18:00,
2013-06-09 11:23:00,74.0,59.0,26.91,NW,312,11.0,14.0,60,0.00,,,-99.99,,2013-06-09 16:23:00,
2013-06-09 11:28:00,74.0,59.0,26.91,WNW,300,11.0,13.0,59,0.00,,,-99.99,,2013-06-09 16:28:00,
2013-06-09 11:33:00,74.0,59.0,26.91,NW,305,12.0,14.0,59,0.00,,,-99.99,,2013-06-09 16:33:00,
2013-06-09 11:38:00,75.0,59.0,26.91,WNW,303,11.0,13.0,58,0.00,,,-99.99,,2013-06-09 16:38:00,
2013-06-09 11:43:00,75.0,59.0,26.91,NW,326,7.0,9.0,58,0.00,,,-99.99,,2013-06-09 16:43:00,
2013-06-09 11:48:00,76.0,59.0,26.91,NW,317,10.0,14.0,56,0.00,,,-99.99,,2013-06-09 16:48:00,
2013-06-09 11:53:00,76.0,59.0,26.91,NW,313,10.0,12.0,54,0.00,,,-99.99,,2013-06-09 16:53:00,
2013-06-09 11:58:00,76.0,57.0,26.91,NW,320,12.0,17.0,53,0.00,,,-99.99,,2013-06-09 16:58:00,
2013-06-09 12:03:00,76.0,57.0,26.91,NNW,331,13.0,16.0,52,0.00,,,-99.99,,2013-06-09 17:03:00,
2013-06-09 12:08:00,76.0,57.0,26.91,NW,326,13.0,15.0,51,0.00,,,-99.99,,2013-06-09 17:08:00,
2013-06-09 12:13:00,76.0,57.0,26.91,NNW,338,11.0,13.0,51,0.00,,,-99.99,,2013-06-09 17:13:00,
2013-06-09 12:18:00,77.0,57.0,26.91,North,358,11.0,14.0,50,0.00,,,-99.99,,2013-06-09 17:18:00,
2013-06-09 12:28:00,78.0,55.0,26.91,NW,314,14.0,18.0,46,0.00,,,-99.99,,2013-06-09 17:28:00,
2013-06-09 12:38:00,78.0,57.0,26.91,NNW,347,10.0,14.0,48,0.00,,,-99.99,,2013-06-09 17:38:00,
2013-06-09 12:43:00,78.0,57.0,26.91,NNW,336,15.0,19.0,48,0.00,,,-99.99,,2013-06-09 17:43:00,
2013-06-09 12:48:00,78.0,55.0,26.91,NW,321,14.0,16.0,47,0.00,,,-99.99,,2013-06-09 17:48:00,
2013-06-09 12:58:00,78.0,57.0,26.90,NNW,334,14.0,17.0,49,0.00,,,-99.99,,2013-06-09 17:58:00,
2013-06-09 13:03:00,78.0,54.0,26.90,North,358,13.0,15.0,44,0.00,,,-99.99,,2013-06-09 18:03:00,
2013-06-09 13:13:00,79.0,57.0,26.90,NW,320,14.0,17.0,46,0.00,,,-99.99,,2013-06-09 18:13:00,
2013-06-09 13:18:00,79.0,57.0,26.90,NNW,347,12.0,13.0,47,0.00,,,-99.99,,2013-06-09 18:18:00,
2013-06-09 13:23:00,79.0,57.0,26.89,NNW,340,14.0,16.0,48,0.00,,,-99.99,,2013-06-09 18:23:00,
2013-06-09 13:33:00,80.0,57.0,26.89,North,1,12.0,15.0,45,0.00,,,-99.99,,2013-06-09 18:33:00,
2013-06-09 13:38:00,80.0,55.0,26.89,NW,314,13.0,15.0,44,0.00,,,-99.99,,2013-06-09 18:38:00,
2013-06-09 13:43:00,80.0,57.0,26.89,NNW,336,10.0,12.0,45,0.00,,,-99.99,,2013-06-09 18:43:00,
2013-06-09 13:48:00,80.0,54.0,26.89,NW,321,12.0,15.0,41,0.00,,,-99.99,,2013-06-09 18:48:00,
2013-06-09 13:53:00,80.0,55.0,26.88,NNW,331,11.0,14.0,44,0.00,,,-99.99,,2013-06-09 18:53:00,
2013-06-09 13:58:00,80.0,55.0,26.88,NW,323,11.0,14.0,44,0.00,,,-99.99,,2013-06-09 18:58:00,
2013-06-09 14:03:00,81.0,57.0,26.88,NW,324,10.0,13.0,45,0.00,,,-99.99,,2013-06-09 19:03:00,
2013-06-09 14:08:00,80.0,55.0,26.88,NW,310,9.0,12.0,43,0.00,,,-99.99,,2013-06-09 19:08:00,
2013-06-09 14:13:00,81.0,55.0,26.88,NNE,16,12.0,13.0,41,0.00,,,-99.99,,2013-06-09 19:13:00,
2013-06-09 14:28:00,81.0,55.0,26.88,NNW,330,9.0,13.0,42,0.00,,,-99.99,,2013-06-09 19:28:00,
2013-06-09 14:33:00,81.0,55.0,26.88,NW,326,11.0,14.0,42,0.00,,,-99.99,,2013-06-09 19:33:00,
2013-06-09 14:38:00,81.0,54.0,26.88,NNW,330,8.0,10.0,40,0.00,,,-99.99,,2013-06-09 19:38:00,
2013-06-09 14:43:00,81.0,54.0,26.88,NW,305,8.0,12.0,40,0.00,,,-99.99,,2013-06-09 19:43:00,
2013-06-09 14:48:00,81.0,55.0,26.87,WNW,290,7.0,10.0,41,0.00,,,-99.99,,2013-06-09 19:48:00,
2013-06-09 14:53:00,82.0,55.0,26.87,North,355,6.0,10.0,40,0.00,,,-99.99,,2013-06-09 19:53:00,
2013-06-09 14:58:00,82.0,54.0,26.87,NNW,333,10.0,14.0,38,0.00,,,-99.99,,2013-06-09 19:58:00,
2013-06-09 15:03:00,82.0,55.0,26.87,NW,313,10.0,13.0,39,0.00,,,-99.99,,2013-06-09 20:03:00,
2013-06-09 15:08:00,82.0,55.0,26.87,WNW,296,8.0,11.0,39,0.00,,,-99.99,,2013-06-09 20:08:00,
2013-06-09 15:13:00,82.0,55.0,26.87,NNW,336,7.0,10.0,40,0.00,,,-99.99,,2013-06-09 20:13:00,
2013-06-09 15:18:00,83.0,55.0,26.87,NNW,334,7.0,9.0,39,0.00,,,-99.99,,2013-06-09 20:18:00,
2013-06-09 15:23:00,83.0,55.0,26.86,NNW,345,9.0,11.0,38,0.00,,,-99.99,,2013-06-09 20:23:00,
2013-06-09 15:28:00,83.0,55.0,26.86,NNW,336,8.0,9.0,38,0.00,,,-99.99,,2013-06-09 20:28:00,
2013-06-09 15:38:00,83.0,52.0,26.86,NNW,333,10.0,12.0,35,0.00,,,-99.99,,2013-06-09 20:38:00,
2013-06-09 15:48:00,83.0,55.0,26.86,North,3,7.0,10.0,39,0.00,,,-99.99,,2013-06-09 20:48:00,
2013-06-09 15:53:00,84.0,55.0,26.86,NNW,347,8.0,13.0,38,0.00,,,-99.99,,2013-06-09 20:53:00,
2013-06-09 16:03:00,84.0,57.0,26.85,NNW,338,8.0,11.0,39,0.00,,,-99.99,,2013-06-09 21:03:00,
2013-06-09 16:13:00,84.0,55.0,26.86,NW,306,8.0,10.0,38,0.00,,,-99.99,,2013-06-09 21:13:00,
2013-06-09 16:23:00,84.0,54.0,26.85,NNW,344,9.0,11.0,35,0.00,,,-99.99,,2013-06-09 21:23:00,
2013-06-09 16:28:00,84.0,55.0,26.85,North,1,10.0,12.0,37,0.00,,,-99.99,,2013-06-09 21:28:00,
2013-06-09 16:38:00,84.0,55.0,26.84,NW,321,9.0,11.0,37,0.00,,,-99.99,,2013-06-09 21:38:00,
2013-06-09 16:43:00,84.0,55.0,26.85,NNW,340,9.0,11.0,37,0.00,,,-99.99,,2013-06-09 21:43:00,
2013-06-09 16:48:00,84.0,55.0,26.84,WNW,303,6.0,7.0,37,0.00,,,-99.99,,2013-06-09 21:48:00,
2013-06-09 16:53:00,84.0,54.0,26.84,NNW,344,7.0,9.0,36,0.00,,,-99.99,,2013-06-09 21:53:00,
2013-06-09 17:03:00,84.0,55.0,26.84,NNW,337,3.0,6.0,37,0.00,,,-99.99,,2013-06-09 22:03:00,
2013-06-09 17:08:00,85.0,55.0,26.84,NE,47,8.0,9.0,37,0.00,,,-99.99,,2013-06-09 22:08:00,
2013-06-09 17:13:00,84.0,55.0,26.84,NNE,21,6.0,8.0,38,0.00,,,-99.99,,2013-06-09 22:13:00,
2013-06-09 17:23:00,85.0,55.0,26.83,NE,44,8.0,9.0,37,0.00,,,-99.99,,2013-06-09 22:23:00,
2013-06-09 17:28:00,85.0,57.0,26.83,NNE,28,8.0,10.0,38,0.00,,,-99.99,,2013-06-09 22:28:00,
2013-06-09 17:33:00,85.0,57.0,26.84,North,353,6.0,8.0,38,0.00,,,-99.99,,2013-06-09 22:33:00,
2013-06-09 17:38:00,85.0,55.0,26.83,NE,41,2.0,4.0,37,0.00,,,-99.99,,2013-06-09 22:38:00,
2013-06-09 17:48:00,85.0,55.0,26.83,NNW,329,3.0,5.0,36,0.00,,,-99.99,,2013-06-09 22:48:00,
2013-06-09 17:58:00,85.0,54.0,26.83,North,0,8.0,9.0,35,0.00,,,-99.99,,2013-06-09 22:58:00,
2013-06-09 18:08:00,85.0,54.0,26.83,NNE,28,3.0,6.0,35,0.00,,,-99.99,,2013-06-09 23:08:00,
2013-06-09 18:18:00,85.0,54.0,26.83,NNE,31,4.0,6.0,34,0.00,,,-99.99,,2013-06-09 23:18:00,
2013-06-09 18:23:00,85.0,54.0,26.83,North,6,8.0,9.0,35,0.00,,,-99.99,,2013-06-09 23:23:00,
2013-06-09 18:28:00,85.0,55.0,26.83,NNE,32,9.0,10.0,36,0.00,,,-99.99,,2013-06-09 23:28:00,
2013-06-09 18:33:00,85.0,54.0,26.83,NNE,25,9.0,11.0,35,0.00,,,-99.99,,2013-06-09 23:33:00,
2013-06-09 18:38:00,85.0,54.0,26.83,NE,51,4.0,6.0,34,0.00,,,-99.99,,2013-06-09 23:38:00,
2013-06-09 18:43:00,85.0,52.0,26.83,North,0,0.0,0.0,33,0.00,,,-99.99,,2013-06-09 23:43:00,
2013-06-09 18:48:00,85.0,54.0,26.83,NNE,28,1.0,3.0,35,0.00,,,-99.99,,2013-06-09 23:48:00,
2013-06-09 18:53:00,85.0,54.0,26.83,NNE,23,3.0,4.0,34,0.00,,,-99.99,,2013-06-09 23:53:00,
2013-06-09 18:58:00,85.0,52.0,26.83,North,0,0.0,0.0,33,0.00,,,-99.99,,2013-06-09 23:58:00,
2013-06-09 19:03:00,86.0,55.0,26.83,North,0,0.0,0.0,35,0.00,,,-99.99,,2013-06-10 00:03:00,
2013-06-09 19:08:00,85.0,55.0,26.83,East,83,6.0,7.0,36,0.00,,,-99.99,,2013-06-10 00:08:00,
2013-06-09 19:13:00,85.0,54.0,26.82,NE,34,7.0,8.0,35,0.00,,,-99.99,,2013-06-10 00:13:00,
2013-06-09 19:18:00,84.0,54.0,26.83,NE,51,7.0,9.0,36,0.00,,,-99.99,,2013-06-10 00:18:00,
2013-06-09 19:23:00,84.0,54.0,26.83,East,83,6.0,8.0,36,0.00,,,-99.99,,2013-06-10 00:23:00,
2013-06-09 19:28:00,84.0,54.0,26.83,East,79,6.0,7.0,36,0.00,,,-99.99,,2013-06-10 00:28:00,
2013-06-09 19:33:00,84.0,54.0,26.82,ENE,75,8.0,9.0,36,0.00,,,-99.99,,2013-06-10 00:33:00,
2013-06-09 19:38:00,84.0,52.0,26.82,ESE,109,8.0,10.0,34,0.00,,,-99.99,,2013-06-10 00:38:00,
2013-06-09 19:43:00,84.0,52.0,26.82,East,80,9.0,10.0,32,0.00,,,-99.99,,2013-06-10 00:43:00,
2013-06-09 19:48:00,83.0,50.0,26.82,East,82,10.0,11.0,32,0.00,,,-99.99,,2013-06-10 00:48:00,
2013-06-09 19:58:00,83.0,52.0,26.82,ENE,78,11.0,13.0,34,0.00,,,-99.99,,2013-06-10 00:58:00,
2013-06-09 20:08:00,82.0,50.0,26.82,ENE,78,11.0,13.0,34,0.00,,,-99.99,,2013-06-10 01:08:00,
2013-06-09 20:13:00,81.0,52.0,26.81,East,93,12.0,14.0,37,0.00,,,-99.99,,2013-06-10 01:13:00,
2013-06-09 20:18:00,80.0,54.0,26.82,East,85,13.0,15.0,40,0.00,,,-99.99,,2013-06-10 01:18:00,
2013-06-09 20:23:00,80.0,54.0,26.82,East,89,12.0,15.0,39,0.00,,,-99.99,,2013-06-10 01:23:00,
2013-06-09 20:28:00,79.0,54.0,26.82,East,93,12.0,14.0,41,0.00,,,-99.99,,2013-06-10 01:28:00,
2013-06-09 20:33:00,79.0,52.0,26.82,East,100,9.0,12.0,39,0.00,,,-99.99,,2013-06-10 01:33:00,
2013-06-09 20:38:00,78.0,54.0,26.82,East,100,9.0,11.0,43,0.00,,,-99.99,,2013-06-10 01:38:00,
2013-06-09 20:43:00,77.0,54.0,26.82,East,87,9.0,10.0,45,0.00,,,-99.99,,2013-06-10 01:43:00,
2013-06-09 20:48:00,76.0,54.0,26.82,East,80,9.0,11.0,47,0.00,,,-99.99,,2013-06-10 01:48:00,
2013-06-09 20:53:00,75.0,54.0,26.82,East,82,10.0,11.0,48,0.00,,,-99.99,,2013-06-10 01:53:00,
2013-06-09 21:03:00,74.0,54.0,26.83,East,94,9.0,9.0,49,0.00,,,-99.99,,2013-06-10 02:03:00,
2013-06-09 21:08:00,73.0,54.0,26.82,East,90,8.0,9.0,51,0.00,,,-99.99,,2013-06-10 02:08:00,
2013-06-09 21:13:00,72.0,54.0,26.82,East,80,9.0,10.0,52,0.00,,,-99.99,,2013-06-10 02:13:00,
2013-06-09 21:18:00,71.0,54.0,26.83,East,80,9.0,10.0,53,0.00,,,-99.99,,2013-06-10 02:18:00,
2013-06-09 21:23:00,71.0,54.0,26.83,East,85,9.0,10.0,54,0.00,,,-99.99,,2013-06-10 02:23:00,
2013-06-09 21:28:00,71.0,54.0,26.83,East,83,9.0,10.0,54,0.00,,,-99.99,,2013-06-10 02:28:00,
2013-06-09 21:33:00,70.0,52.0,26.83,East,80,9.0,10.0,54,0.00,,,-99.99,,2013-06-10 02:33:00,
2013-06-09 21:43:00,69.0,52.0,26.83,East,82,9.0,10.0,56,0.00,,,-99.99,,2013-06-10 02:43:00,
2013-06-09 21:48:00,69.0,54.0,26.83,East,87,9.0,9.0,57,0.00,,,-99.99,,2013-06-10 02:48:00,
2013-06-09 21:58:00,69.0,54.0,26.83,East,86,10.0,11.0,58,0.00,,,-99.99,,2013-06-10 02:58:00,
2013-06-09 22:03:00,69.0,54.0,26.83,East,86,10.0,11.0,58,0.00,,,-99.99,,2013-06-10 03:03:00,
2013-06-09 22:13:00,68.0,54.0,26.83,East,86,10.0,11.0,60,0.00,,,-99.99,,2013-06-10 03:13:00,
2013-06-09 22:18:00,68.0,54.0,26.83,ENE,78,10.0,11.0,59,0.00,,,-99.99,,2013-06-10 03:18:00,
2013-06-09 22:28:00,68.0,54.0,26.84,ENE,75,10.0,12.0,60,0.00,,,-99.99,,2013-06-10 03:28:00,
2013-06-09 22:33:00,68.0,52.0,26.85,East,96,10.0,12.0,58,0.00,,,-99.99,,2013-06-10 03:33:00,
2013-06-09 22:38:00,67.0,52.0,26.85,ESE,117,10.0,11.0,59,0.00,,,-99.99,,2013-06-10 03:38:00,
2013-06-09 22:43:00,67.0,52.0,26.85,ESE,109,10.0,11.0,57,0.00,,,-99.99,,2013-06-10 03:43:00,
2013-06-09 22:48:00,66.0,50.0,26.85,ESE,114,9.0,10.0,58,0.00,,,-99.99,,2013-06-10 03:48:00,
2013-06-09 22:58:00,65.0,48.0,26.86,ESE,121,10.0,11.0,56,0.00,,,-99.99,,2013-06-10 03:58:00,
2013-06-09 23:03:00,65.0,48.0,26.86,ESE,116,8.0,9.0,56,0.00,,,-99.99,,2013-06-10 04:03:00,
2013-06-09 23:13:00,64.0,48.0,26.86,SE,125,9.0,10.0,58,0.00,,,-99.99,,2013-06-10 04:13:00,
2013-06-09 23:18:00,64.0,50.0,26.86,ESE,111,9.0,10.0,59,0.00,,,-99.99,,2013-06-10 04:18:00,
2013-06-09 23:28:00,64.0,50.0,26.86,ESE,123,9.0,10.0,60,0.00,,,-99.99,,2013-06-10 04:28:00,
2013-06-09 23:33:00,64.0,50.0,26.86,ESE,120,9.0,10.0,61,0.00,,,-99.99,,2013-06-10 04:33:00,
2013-06-09 23:38:00,63.0,50.0,26.86,SE,130,9.0,10.0,61,0.00,,,-99.99,,2013-06-10 04:38:00,
2013-06-09 23:43:00,63.0,50.0,26.86,SE,134,9.0,10.0,63,0.00,,,-99.99,,2013-06-10 04:43:00,
2013-06-09 23:48:00,63.0,50.0,26.86,SE,133,9.0,10.0,64,0.00,,,-99.99,,2013-06-10 04:48:00,
2013-06-09 23:53:00,62.0,48.0,26.86,SE,144,9.0,10.0,60,0.00,,,-99.99,,2013-06-10 04:53:00,
2013-06-09 23:58:00,62.0,50.0,26.86,SE,145,9.0,10.0,66,0.00,,,-99.99,,2013-06-10 04:58:00,